This is the latest recevied weather packets stored in our database for station/object KE8WMS. If no packets are shown the sender has not sent any weather packets the latest 10 day(s).
| Time | Temp. | Humidity | Pressure | Rain* | Wind** | Luminosity | Snow |
|---|---|---|---|---|---|---|---|
| 1787705704 | 17.78° C | 85% | 1014.1 hPa | 0 mm | - | 0 W/m² | - |
| 1787705400 | 17.78° C | 85% | 1014.3 hPa | 0 mm | - | 0 W/m² | - |
| 1787705095 | 17.78° C | 84% | 1014.1 hPa | 0 mm | - | 0 W/m² | - |
| 1787704791 | 18.33° C | 83% | 1014.1 hPa | 0 mm | - | 0 W/m² | - |
| 1787704487 | 18.33° C | 83% | 1014.3 hPa | 0 mm | - | 0 W/m² | - |
| 1787704181 | 18.89° C | 82% | 1014.1 hPa | 0 mm | - | 0 W/m² | - |
| 1787703881 | 18.89° C | 81% | 1013.9 hPa | 0 mm | - | 1 W/m² | - |
| 1787703577 | 19.44° C | 80% | 1013.8 hPa | 0 mm | - | 1 W/m² | - |
| 1787703276 | 19.44° C | 80% | 1013.9 hPa | 0 mm | - | 3 W/m² | - |
| 1787702972 | 19.44° C | 79% | 1014.3 hPa | 0 mm | - | 5 W/m² | - |
| 1787702668 | 20° C | 78% | 1014.2 hPa | 0 mm | - | 8 W/m² | - |
| 1787702368 | 20° C | 78% | 1014.1 hPa | 0 mm | - | 12 W/m² | - |
| 1787702067 | 20.56° C | 78% | 1014 hPa | 0 mm | - | 16 W/m² | - |
| 1787701765 | 20.56° C | 78% | 1014 hPa | 0 mm | - | 20 W/m² | - |
| 1787701465 | 20.56° C | 78% | 1014 hPa | 0 mm | - | 25 W/m² | - |
| 1787701160 | 21.11° C | 77% | 1013.9 hPa | 0 mm | - | 31 W/m² | - |
| 1787700855 | 21.11° C | 74% | 1014 hPa | 0 mm | - | 35 W/m² | - |
| 1787700552 | 21.11° C | 74% | 1014.2 hPa | 0 mm | - | 39 W/m² | - |
| 1787700248 | 21.67° C | 75% | 1013.9 hPa | 0 mm | - | 43 W/m² | - |
| 1787699943 | 21.67° C | 72% | 1014.1 hPa | 0 mm | - | 46 W/m² | - |
| 1787699638 | 21.67° C | 74% | 1013.9 hPa | 0 mm | - | 50 W/m² | - |
| 1787699334 | 21.67° C | 74% | 1014.2 hPa | 0 mm | - | 50 W/m² | - |
| 1787699030 | 21.67° C | 73% | 1014.1 hPa | 0 mm | - | 46 W/m² | - |
| 1787698725 | 21.67° C | 74% | 1014.2 hPa | 0 mm | - | 48 W/m² | - |
| 1787698421 | 21.67° C | 73% | 1014.4 hPa | 0 mm | - | 53 W/m² | - |
* Rain latest hour (hover to see other rain measurements)
** Current wind speed in m/s (hover to see current wind gust speed)